{"data":{"norad_id":59432,"epoch":"2026-09-21T19:15:52.976736Z","epoch_age_seconds":52863,"freshness":"FRESH","line1":"1 59432U 24065M   26264.80269649 -.00000795  00000+0 -12386-4 0  9990","line2":"2 59432  53.1581  87.3105 0001162  87.0985 273.0151 15.34394231139006","mean_motion":15.34394231,"eccentricity":0.0001162,"inclination_deg":53.1581,"raan_deg":87.3105,"arg_perigee_deg":87.0985,"mean_anomaly_deg":273.0151,"bstar":-1.2386e-5,"rev_number":13900,"period_min":93.848110929192,"perigee_km":461.92547931623,"apogee_km":463.51529457295,"semimajor_km":6840.8573869446,"source":"CELESTRAK","updated_at":"2026-09-22T09:00:48.940535Z"}}